Find Starlink 34044

NORAD ID: 63846 Int'l Des: 2025-093 Owner: SPXS Country: US Constellation: starlink operational
LEOCIRCULAR

当前视图

正在加载3D地球...

About Starlink 34044

Starlink 34044 (NORAD 63846) is a starlink constellation satellite (v2 mini) launched May 7, 2025 by SPXS of US. It operates in LEO, CIRCULAR orbit with a mass of 575.00 kg.

即将过境

Passes for default location (London). Set your location on the main map for personalized predictions.

高度历史

Loading altitude history...

两行轨道根数

1 63846U 25093L 26262.74753980 .00011903 00000-0 44133-3 0 9999
2 63846 43.0028 61.7231 0001271 267.0566 93.0140 15.27583883 77437
Epoch: Sep 19, 2026 • Age: 28 hours

当前状态

高度 484.5 km
远地点 / 近地点 N/A
速度 7.63 km/s
星下点 32.18°N, 121.19°E
发射日期 May 7, 2025
运行时间 1.3 years
类型 internet

技术详情

分类 Payload
质量 575.00 kg
干质量 530.00 kg
长度 0.30 m
跨度 29.00 m
形状 ? Box + pan
制造商 SPXS
平台类型 Starlink V2MO
阶段状态 In Orbit
所有者/国家 SPXS/US

Most Searched